Regional Weather Roundup
Issued by NWS

Home | Current Version | Previous Version | Text Only | Print | Product List | Glossary On
Versions: 1 2 3 4 5 6 7 8 9 10 11 12 13 14 15 16 17 18 19 20 21 22 23 24 25 26 27 28 29 30 31 32 33 34 35 36 37 38 39 40 41 42 43 44 45 46 47 48 49 50
000
ASUS45 KABQ 020401
RWRNM
NEW MEXICO REGIONAL WEATHER ROUNDUP
NATIONAL WEATHER SERVICE ALBUQUERQUE NM
1000 PM MDT WED JUL 01 2015

NOTE: "FAIR" MEANS FEW OR NO CLOUDS BELOW 12,000 FEET AGL WITH NO
       SIGNIFICANT WEATHER OR OBSTRUCTIONS TO VISION.

      THIS PRODUCT IS RELEASED AS TWO VERSIONS.  ONE VERSION NEAR
      THE TOP OF THE HOUR CONTAINING PRELIMINARY DATA FROM ALBUQUERQUE
      AND OTHER STATIONS.  A FINAL VERSION WITH ADDITIONAL DATA IS
      ISSUED ABOUT 10 MINUTES AFTER THE HOUR.

NMZ501-503-504-510>518-020500-
NORTHWEST PLATEAU/NORTHCENTRAL MOUNTAINS

CITY           SKY/WX    TMP DP  RH WIND       PRES   REMARKS
FARMINGTON     MOCLDY    82  46  28 E8        30.09R THUNDER
SANTA FE       TSTM      65  56  72 N21       30.28R
TAOS           CLOUDY    61  46  59 E18G28    30.30F

$$
NMZ402-403-502-505>509-020500-
WESTCENTRAL MOUNTAINS/SOUTHWEST MOUNTAINS

CITY           SKY/WX    TMP DP  RH WIND       PRES   REMARKS
GALLUP         CLOUDY    78  49  35 SW14      30.17R
GRANTS         CLOUDY    78  45  30 NE21      30.20R
SILVER CITY      N/A     81  45  28 W8G17     30.13R

$$
NMZ407-409-411-412-020500-
SOUTHERN DESERTS

CITY           SKY/WX    TMP DP  RH WIND       PRES   REMARKS
LORDSBURG      FAIR      82  55  39 W14G21    30.03R
DEMING         CLEAR     81  43  26 CALM      30.01R
HOLLOMAN AFB   PTCLDY    84  45  25 S7        29.98R
ALAMOGORDO     PTCLDY    81  46  30 SE8       30.01R
T OR C         CLEAR     86  41  20 S6        30.03R

$$
NMZ519>523-020500-
CENTRAL VALLEYS/CENTRAL HIGHLANDS

CITY           SKY/WX    TMP DP  RH WIND       PRES   REMARKS
ALBUQUERQUE    LGT RAIN  81  52  36 N17G36    30.13R
DOUBLE EAGLE   MOCLDY    75  52  43 N23       30.15R THUNDER
MORIARTY ARPT    N/A     78  37  23 SE10      30.19R
CLINES CORNERS CLOUDY    73  41  31 S13       30.24R
BELEN          FAIR      82  40  22 S5        30.05R
SOCORRO        NOT AVBL

$$
NMZ524>526-539-540-020500-
SOUTHCENTRAL MOUNTAINS

CITY           SKY/WX    TMP DP  RH WIND       PRES   REMARKS
RUIDOSO        NOT AVBL

$$
NMZ527>531-020500-
NORTHEAST HIGHLANDS/NORTHEAST PLAINS

CITY           SKY/WX    TMP DP  RH WIND       PRES   REMARKS
LAS VEGAS      CLOUDY    67  52  58 N3        30.25R
RATON          LGT RAIN  63  57  81 NW15      30.28R
CLAYTON        LGT RAIN  78  57  48 CALM      30.10R

$$
NMZ532>537-020500-
EASTCENTRAL PLAINS

CITY           SKY/WX    TMP DP  RH WIND       PRES   REMARKS
TUCUMCARI      PTCLDY    84  52  33 S12       30.00R
CANNON AFB     NOT AVBL
CLOVIS AIRPORT CLEAR     77  57  50 S14         N/A

$$
NMZ028-029-538-020500-
SOUTHEAST PLAINS

CITY           SKY/WX    TMP DP  RH WIND       PRES   REMARKS
ROSWELL        CLEAR     82  56  40 SE9       30.00R
ARTESIA        CLEAR     82  59  44 SE15      30.00R
CARLSBAD       CLEAR     84  59  42 SE14      29.98R
HOBBS          CLEAR     77  59  53 SE10      30.04R


$$


USA.gov is the U.S. government's official web portal to all federal, state and local government web resources and services.